Location: Ford County Road and Bridge Department
(37.7686°N, 99.9762°W)
Time: 17:22:28
(UTC+00:00)

Cosmos 2237 Rocket - Pass Details

Date: 18 January 2020
Orbit: 837 x 848 km, 71.0° (Epoch: 21 February)

Event Time Altitude Azimuth Distance (km) Brightness Sun altitude
Rises 01:30:48 0° 342° (NNW) 3,394 5.4 -20.3°
Reaches altitude 10° 01:33:19 10° 347° (NNW) 2,456 4.6 -20.8°
Maximum altitude 01:38:50 55° 64° (ENE) 1,001 2.2 -21.9°
Enters shadow 01:40:18 43° 113° (ESE) 1,165 2.5 -22.2°
